Wind_Speed
36 34 36 36 35 34 32 31 31 28 33 33 31 27 25 24 22 21 21 16 16 10 11 9 6 5 4 3 3 2 3 2 5 4 4 2 1 5 5 13 6 9 5 4 20
39 37 36 36 36 36 34 32 30 29 28 32 32 29 26 24 22 24 22 20 16 13 9 9 8 6 3 2 2 3 3 5 3 5 1 4 2 7 4 7 3 8 9 10 23
41 39 37 36 35 37 36 33 32 29 28 28 32 30 27 22 18 28 23 19 18 17 12 9 8 6 2 2 2 2 5 3 3 5 8 5 1 0 8 3 9 13 13 17 27
43 43 40 38 36 34 38 36 32 32 29 29 31 30 27 24 9 8 25 25 20 17 16 12 10 6 3 2 3 1 7 5 4 2 3 5 6 2 10 4 8 11 13 17 29
44 44 43 41 37 34 34 39 35 32 31 28 31 32 29 24 19 5 14 30 27 21 20 15 12 7 5 5 3 2 3 7 11 11 12 4 7 4 8 7 7 10 16 17 23
47 45 45 43 39 34 32 34 38 35 32 28 27 31 32 22 24 11 9 22 32 27 22 19 9 8 5 4 5 4 6 4 7 7 6 3 3 2 6 9 11 13 17 19 21
48 47 46 45 42 36 33 32 35 38 35 30 25 26 30 22 20 17 8 17 29 26 23 20 7 10 5 3 7 2 2 6 8 4 2 1 5 7 12 7 12 16 19 21 21
49 48 46 46 45 39 33 31 31 36 36 32 28 29 10 30 16 24 14 8 21 23 19 21 12 9 4 2 2 3 1 2 3 8 6 6 11 13 13 12 13 15 18 22 25
51 50 49 47 46 41 35 30 28 31 33 31 28 26 8 19 23 25 25 16 17 21 17 15 13 3 4 3 1 2 3 3 6 7 2 6 7 14 23 19 17 17 19 23 26
51 56 53 50 48 44 35 30 25 26 29 29 26 15 13 27 33 25 23 19 19 21 18 9 6 3 1 4 7 5 3 3 6 4 5 7 13 9 11 20 23 24 25 26 28
57 43 55 52 50 44 39 34 23 15 31 26 28 15 8 20 32 29 27 23 20 18 6 7 4 13 15 4 0 4 4 7 2 6 4 8 17 18 24 23 19 22 26 34 35
51 46 58 52 51 48 46 43 53 23 27 18 16 21 13 28 17 29 30 18 11 8 8 4 17 9 7 3 1 1 1 2 4 6 5 8 14 11 16 17 28 32 32 30 34
48 48 55 54 52 51 55 44 44 31 13 12 16 33 20 24 15 31 31 18 8 12 16 15 2 16 8 5 7 5 7 2 3 6 3 3 10 14 8 26 32 34 35 37 34
50 49 59 59 55 55 52 37 34 32 4 8 13 19 19 17 5 22 37 23 6 18 11 11 7 10 8 14 11 13 8 5 5 3 4 1 7 9 5 15 13 32 38 42 42
47 55 61 65 51 59 58 41 38 20 8 11 9 10 19 16 16 13 35 18 8 7 7 7 11 11 12 7 9 5 6 10 6 7 5 5 6 7 6 12 11 22 33 41 45
49 45 65 61 49 52 57 47 38 4 6 8 13 13 12 8 5 15 23 16 7 4 2 5 3 11 9 6 14 8 4 4 4 2 11 21 9 8 10 7 8 17 34 40 40
43 50 71 62 54 57 55 48 9 10 1 9 13 16 18 10 5 7 18 17 12 9 15 5 7 3 0 6 4 9 5 3 5 5 10 7 8 21 7 8 11 18 29 36 38
50 55 67 58 58 59 57 18 8 5 8 4 13 17 18 16 6 4 13 12 20 4 6 10 5 13 6 7 2 15 13 4 6 5 6 3 8 8 11 27 31 36 37 33 31
49 67 59 54 64 65 42 16 9 8 8 13 22 20 7 10 8 5 8 12 16 11 7 6 7 1 6 7 10 4 15 5 3 2 2 5 9 6 8 9 16 29 37 42 42
47 49 50 64 67 54 19 11 5 6 8 17 6 11 16 21 8 12 12 8 6 19 3 3 1 2 3 7 11 8 7 5 6 5 6 6 6 8 1 10 12 18 29 36 33
42 26 54 65 68 38 18 5 5 6 6 7 5 6 9 16 10 14 11 1 8 8 12 3 3 3 3 8 13 7 7 6 2 4 4 4 8 8 16 14 15 18 20 24 26
22 5 63 68 14 10 14 10 7 5 6 5 5 4 9 17 7 12 9 7 18 19 14 10 2 4 8 4 7 14 18 14 6 6 3 1 13 5 6 8 14 25 27 20 16
19 32 56 62 8 12 7 6 5 5 4 5 4 3 3 9 5 5 7 2 5 14 9 10 6 5 3 3 3 9 12 14 21 5 16 3 19 4 5 8 14 14 12 11 10
25 10 25 19 13 17 16 11 7 7 4 5 6 6 6 5 6 7 5 1 4 13 18 21 4 11 18 6 4 8 15 18 14 8 25 18 36 13 8 5 10 14 17 15 16
15 7 13 8 7 15 7 6 14 6 3 5 4 5 9 5 3 4 4 1 1 9 8 5 7 7 14 9 3 2 9 18 22 27 10 30 27 28 14 9 21 23 17 16 16
11 11 11 5 27 20 10 13 19 5 5 2 10 7 4 8 7 8 7 4 5 5 7 5 3 3 14 12 19 18 13 13 25 27 24 32 28 18 15 26 26 29 20 22 22
30 33 19 15 13 14 5 13 8 9 10 9 13 7 3 6 12 15 8 5 4 4 5 5 4 4 7 5 7 11 32 23 17 17 22 22 36 9 13 12 25 32 28 31 29
Wind_Direction
232 231 230 226 225 223 218 219 218 215 218 217 217 217 216 215 212 212 213 219 217 232 221 222 223 242 245 182 151 100 63 186 187 137 295 333 177 156 164 153 180 186 188 184 178
232 227 229 229 223 222 220 217 218 213 216 217 215 216 214 213 212 217 213 216 211 210 206 213 216 208 212 208 169 137 141 215 187 152 175 312 246 163 160 149 171 179 186 182 183
230 228 227 228 227 223 220 217 215 216 211 213 213 212 213 211 215 229 212 212 213 210 209 200 196 199 213 198 198 159 193 174 247 109 45 346 107 273 152 242 213 197 190 180 186
231 227 225 226 226 224 218 216 211 211 214 206 209 206 206 204 212 230 223 216 215 210 202 203 195 185 161 209 205 203 255 195 239 352 47 350 321 262 188 240 232 224 202 187 192
229 226 223 223 222 221 219 216 212 208 213 214 202 197 195 195 213 207 208 204 210 204 198 198 193 185 182 200 187 217 258 249 237 294 311 285 270 244 248 240 245 208 194 197 200
226 225 222 219 218 216 216 215 211 206 206 212 203 194 191 208 206 220 234 204 204 200 195 200 206 198 189 194 189 276 243 275 262 273 295 281 278 295 244 246 230 211 202 203 206
226 223 220 217 214 213 212 212 210 204 202 204 206 199 192 195 206 199 86 202 199 198 195 196 199 185 162 170 213 234 302 290 264 253 273 257 294 237 237 226 219 212 209 209 214
224 221 217 214 214 208 206 206 207 201 197 198 201 198 220 206 202 215 212 158 192 194 197 194 191 187 191 210 92 141 44 211 273 203 238 188 256 233 219 207 215 219 221 219 219
217 218 214 212 211 206 203 202 201 197 193 192 194 198 206 200 198 202 219 198 167 186 187 193 199 179 188 133 42 259 204 210 305 212 180 191 257 265 236 211 215 224 232 230 230
230 215 210 209 207 202 197 192 185 184 185 186 196 189 213 202 200 197 198 203 186 176 187 161 168 145 108 165 204 193 201 208 207 245 196 235 257 268 288 234 226 232 237 235 235
231 234 209 205 203 197 183 169 157 172 184 187 192 189 202 191 193 193 197 195 198 202 160 177 179 209 198 166 297 160 184 207 227 245 180 227 251 254 254 260 257 245 246 241 238
230 236 201 195 199 192 177 177 180 195 179 194 197 191 176 181 176 194 189 183 174 182 129 156 221 200 142 153 172 21 140 262 290 261 179 261 260 254 243 248 249 250 250 248 242
223 216 199 193 195 186 181 184 176 160 158 186 185 187 170 175 178 195 193 190 167 191 195 202 261 179 163 161 205 214 216 203 248 338 248 296 272 266 246 243 251 254 255 254 246
218 214 193 189 185 177 180 174 169 160 106 172 178 195 185 173 176 196 194 175 184 201 178 226 231 175 183 210 183 232 173 189 251 311 246 95 283 262 256 238 235 247 248 250 249
214 220 190 187 175 176 178 166 160 165 161 170 166 180 181 173 140 184 188 188 162 157 164 206 174 179 198 181 159 228 170 199 224 251 331 241 272 270 222 241 240 245 251 251 253
211 218 188 181 172 174 171 164 160 116 229 170 145 168 147 177 155 145 179 192 174 145 284 200 105 184 191 167 186 146 80 60 63 175 254 244 216 247 239 211 252 245 256 259 255
200 205 184 176 167 170 163 163 154 191 332 150 168 165 170 167 138 163 183 185 182 184 208 178 202 336 61 166 142 176 144 215 215 201 239 189 209 244 271 278 249 258 261 266 263
202 198 178 168 166 163 164 153 187 151 190 195 152 150 184 150 182 143 163 200 212 184 174 204 205 196 193 208 149 196 195 205 209 198 254 125 229 243 220 238 247 253 263 266 267
201 167 163 159 168 164 159 171 173 176 167 146 143 163 142 176 150 134 184 203 205 187 176 176 236 104 200 169 160 174 213 200 358 123 26 219 277 289 255 262 259 260 256 258 262
201 153 156 167 165 163 162 158 116 154 135 136 139 169 176 173 145 180 169 195 183 190 132 185 223 181 210 162 207 169 140 190 210 219 246 246 264 237 241 243 254 261 255 257 266
149 137 154 165 163 165 172 131 127 155 115 139 140 133 167 177 163 184 188 10 162 151 179 107 135 267 146 207 192 192 207 225 327 175 218 269 257 210 215 222 231 246 274 270 263
140 121 152 160 161 168 170 138 116 125 94 92 102 98 147 167 168 185 188 165 182 153 195 190 201 215 219 214 226 234 216 198 211 207 260 31 264 177 216 266 272 271 279 273 247
118 118 151 157 154 157 132 107 107 129 132 138 121 144 136 149 137 166 155 173 182 174 166 161 215 238 303 298 217 214 223 242 235 291 243 168 255 202 234 254 271 266 252 219 212
126 130 142 161 131 144 145 143 119 113 100 103 111 88 98 95 18 154 152 42 185 194 184 170 185 210 232 236 170 203 219 222 244 230 244 240 263 250 267 286 290 263 240 204 181
126 121 139 146 143 134 101 124 136 125 76 134 53 133 132 117 83 128 133 108 280 204 202 213 218 226 244 237 228 312 223 209 215 232 248 248 253 253 248 257 269 269 256 214 200
113 140 96 105 143 137 136 177 152 115 137 166 123 139 153 144 174 176 132 151 183 169 185 188 252 228 260 262 256 247 237 248 222 226 234 245 260 253 250 241 245 251 245 235 218
124 127 117 133 146 141 175 164 152 122 24 135 129 112 167 111 105 151 140 153 76 164 162 157 181 234 264 240 313 246 236 236 250 246 229 242 245 270 249 227 231 243 234 236 234
Height
1477 1480 1485 1488 1492 1497 1501 1505 1509 1513 1517 1522 1527 1531 1535 1536 1539 1541 1541 1547 1547 1548 1549 1549 1550 1551 1551 1551 1551 1551 1558 1561 1554 1552 1553 1549 1548 1548 1549 1550 1550 1550 1551 1552 1554
1470 1474 1479 1482 1486 1491 1496 1501 1505 1508 1513 1518 1523 1530 1532 1535 1537 1537 1541 1544 1545 1547 1548 1549 1549 1551 1552 1552 1551 1551 1557 1554 1549 1546 1549 1549 1548 1548 1550 1550 1551 1550 1550 1551 1552
1462 1467 1472 1476 1481 1485 1491 1496 1501 1505 1510 1514 1521 1526 1529 1533 1536 1530 1538 1541 1544 1544 1548 1548 1549 1551 1552 1551 1551 1551 1553 1549 1548 1546 1545 1548 1548 1548 1548 1551 1548 1548 1548 1550 1551
1453 1459 1465 1470 1475 1480 1486 1492 1497 1501 1506 1510 1516 1521 1527 1531 1536 1530 1534 1538 1541 1543 1546 1547 1549 1551 1551 1552 1551 1553 1549 1547 1546 1546 1543 1546 1548 1547 1547 1547 1546 1547 1547 1548 1550
1444 1451 1457 1463 1469 1474 1479 1487 1494 1497 1502 1507 1513 1516 1522 1527 1527 1529 1529 1533 1537 1540 1543 1546 1547 1549 1550 1551 1552 1551 1548 1546 1544 1545 1548 1545 1547 1547 1546 1546 1546 1545 1546 1547 1548
1435 1442 1449 1457 1463 1469 1474 1482 1489 1494 1498 1504 1505 1511 1516 1522 1525 1529 1527 1529 1532 1537 1541 1544 1546 1549 1549 1550 1551 1548 1547 1545 1545 1544 1547 1547 1544 1545 1543 1544 1544 1544 1545 1546 1547
1425 1433 1441 1450 1456 1463 1470 1477 1485 1489 1495 1502 1505 1506 1512 1518 1521 1527 1525 1527 1531 1535 1539 1543 1546 1548 1549 1550 1550 1549 1550 1547 1544 1544 1545 1547 1547 1544 1542 1542 1543 1543 1544 1545 1546
1414 1424 1433 1443 1451 1457 1465 1474 1482 1487 1493 1500 1504 1507 1507 1514 1519 1523 1526 1529 1530 1535 1539 1543 1545 1547 1549 1550 1549 1551 1552 1555 1542 1544 1544 1548 1547 1540 1539 1539 1540 1542 1543 1543 1543
1403 1414 1425 1435 1443 1452 1461 1471 1479 1485 1493 1499 1503 1506 1508 1512 1516 1520 1524 1527 1529 1534 1539 1541 1545 1546 1548 1551 1555 1553 1559 1558 1549 1542 1544 1544 1542 1535 1536 1535 1537 1538 1539 1540 1541
1394 1405 1415 1426 1436 1448 1457 1468 1478 1485 1491 1496 1500 1508 1503 1502 1512 1518 1522 1527 1529 1531 1538 1542 1544 1546 1549 1551 1554 1555 1555 1554 1553 1542 1544 1545 1538 1533 1534 1534 1532 1533 1535 1535 1536
1385 1391 1407 1417 1430 1442 1453 1466 1478 1488 1486 1482 1484 1490 1490 1500 1510 1515 1520 1524 1527 1530 1535 1539 1541 1537 1538 1543 1544 1547 1549 1550 1546 1543 1544 1544 1538 1533 1532 1532 1531 1530 1529 1529 1529
1376 1381 1395 1408 1424 1434 1444 1448 1449 1455 1472 1480 1485 1492 1493 1497 1505 1512 1518 1522 1524 1528 1533 1540 1530 1534 1540 1543 1545 1548 1549 1550 1546 1542 1546 1543 1537 1529 1527 1527 1524 1524 1524 1522 1524
1369 1380 1386 1402 1418 1427 1429 1443 1454 1459 1474 1480 1483 1488 1492 1497 1500 1506 1513 1519 1522 1527 1528 1528 1528 1532 1538 1543 1547 1548 1550 1549 1548 1545 1541 1541 1535 1523 1519 1518 1516 1516 1516 1517 1516
1361 1366 1379 1395 1413 1417 1428 1444 1453 1462 1479 1478 1481 1486 1490 1494 1500 1502 1509 1516 1522 1523 1530 1532 1526 1529 1534 1537 1541 1546 1544 1546 1548 1551 1555 1541 1540 1519 1513 1512 1509 1506 1506 1506 1509
1350 1356 1369 1383 1392 1404 1419 1440 1451 1459 1483 1473 1477 1479 1485 1492 1495 1500 1506 1511 1515 1516 1525 1523 1525 1528 1531 1530 1537 1540 1540 1543 1546 1550 1549 1543 1546 1514 1510 1507 1503 1498 1497 1497 1500
1342 1351 1363 1379 1389 1407 1422 1436 1449 1464 1479 1464 1464 1473 1482 1489 1493 1497 1503 1510 1513 1517 1520 1519 1519 1522 1523 1528 1531 1536 1543 1546 1550 1552 1552 1528 1542 1507 1504 1502 1496 1492 1490 1490 1491
1334 1343 1355 1365 1376 1400 1417 1433 1450 1451 1460 1458 1458 1467 1475 1482 1491 1492 1496 1500 1505 1515 1513 1518 1517 1520 1521 1526 1531 1535 1545 1547 1547 1548 1537 1521 1537 1503 1495 1493 1491 1487 1485 1483 1483
1329 1337 1350 1364 1381 1397 1414 1427 1434 1453 1455 1448 1452 1466 1471 1478 1486 1491 1495 1500 1502 1507 1511 1514 1521 1518 1520 1522 1526 1532 1534 1537 1538 1541 1528 1527 1524 1494 1486 1482 1481 1480 1478 1478 1477
1322 1331 1344 1357 1377 1395 1408 1418 1426 1433 1437 1439 1453 1463 1469 1476 1478 1488 1494 1494 1495 1502 1508 1513 1512 1510 1513 1517 1522 1529 1526 1527 1534 1566 1548 1524 1505 1488 1483 1482 1478 1474 1471 1469 1469
1311 1322 1338 1356 1377 1391 1401 1407 1424 1423 1427 1436 1444 1453 1459 1467 1478 1484 1492 1486 1493 1496 1499 1506 1510 1511 1512 1514 1514 1516 1522 1533 1532 1533 1538 1517 1512 1489 1479 1480 1474 1469 1463 1462 1463
1302 1322 1339 1356 1378 1390 1393 1411 1420 1422 1424 1433 1445 1452 1453 1461 1470 1476 1482 1485 1486 1493 1499 1501 1511 1520 1512 1510 1511 1516 1519 1524 1520 1525 1521 1513 1491 1477 1470 1468 1466 1460 1459 1460 1461
1299 1318 1335 1354 1372 1387 1394 1403 1413 1422 1426 1433 1441 1447 1450 1459 1470 1474 1480 1481 1482 1486 1495 1500 1509 1517 1509 1507 1507 1506 1506 1511 1515 1512 1515 1520 1480 1463 1464 1464 1465 1458 1458 1456 1457
1301 1316 1344 1356 1365 1383 1398 1406 1412 1420 1426 1434 1440 1442 1451 1459 1472 1472 1476 1477 1479 1483 1490 1498 1503 1510 1513 1512 1508 1503 1505 1506 1503 1510 1500 1515 1458 1456 1460 1461 1459 1456 1454 1453 1455
1302 1319 1345 1361 1369 1376 1388 1402 1414 1420 1426 1431 1437 1441 1451 1460 1465 1468 1474 1477 1478 1481 1485 1491 1497 1497 1495 1497 1494 1498 1498 1501 1506 1501 1484 1490 1448 1461 1460 1461 1460 1456 1455 1452 1452
1307 1326 1334 1354 1372 1378 1389 1398 1408 1420 1424 1427 1437 1438 1447 1464 1472 1472 1476 1480 1481 1483 1488 1492 1491 1496 1491 1493 1494 1491 1490 1493 1496 1486 1495 1460 1464 1448 1459 1462 1459 1457 1459 1456 1455
1305 1322 1339 1356 1365 1377 1389 1400 1402 1417 1420 1427 1432 1441 1443 1454 1455 1469 1471 1477 1479 1484 1488 1488 1492 1490 1488 1492 1490 1488 1485 1484 1476 1474 1481 1464 1461 1439 1452 1453 1454 1455 1457 1455 1452
1311 1322 1334 1359 1369 1376 1392 1397 1404 1411 1423 1425 1430 1438 1446 1452 1456 1460 1466 1470 1474 1480 1483 1488 1488 1491 1491 1485 1491 1479 1458 1467 1474 1468 1463 1461 1431 1450 1450 1448 1446 1448 1448 1449 1450